Regional Weather Roundup
Issued by NWS

Home | Current Version | Previous Version | Graphics & Text | Print | Product List | Glossary On
Versions: 1 2 3 4 5 6 7 8 9 10 11 12 13 14 15 16 17 18 19 20 21 22 23 24 25 26 27 28 29 30 31 32 33 34 35 36 37 38 39 40 41 42 43 44 45 46 47 48 49 50
187
ASUS43 KLOT 241208
RWRIL

ILLINOIS REGIONAL WEATHER ROUNDUP
NATIONAL WEATHER SERVICE CHICAGO/ROMEOVILLE IL
700 AM CDT TUE MAY 24 2016

NOTE: "FAIR" INDICATES FEW OR NO CLOUDS BELOW 12,000 FEET WITH NO
SIGNIFICANT WEATHER AND/OR OBSTRUCTIONS TO VISIBILITY.

* THESE STATIONS ARE NOT UNDER NWS QUALITY CONTROL. THEY ALSO MAY NOT
  REPORT WEATHER SUCH AS PRECIPITATION OR FOG.

ILZ001-002-007-009-015-016-024-241300-
NORTHWEST ILLINOIS

CITY           SKY/WX    TMP DP  RH WIND       PRES   REMARKS
MOLINE         SUNNY     67  53  61 CALM      29.95R
6HR MIN TEMP:  59; 6HR MAX TEMP:  68;

STERLING*      SUNNY     65  53  65 CALM      29.98R
SAVANNA*       PTSUNNY   64  54  70 S7        29.95R
$$

ILZ003-004-008-010-011-017-018-241300-
NORTH CENTRAL ILLINOIS

CITY           SKY/WX    TMP DP  RH WIND       PRES   REMARKS
ROCKFORD       PTSUNNY   60  53  77 S3        29.98S
6HR MIN TEMP:  56; 6HR MAX TEMP:  65;

FREEPORT*      SUNNY     63  51  66 S9        29.97R
ROCHELLE*      SUNNY     62  52  69 S3        29.99R
DE KALB*       SUNNY     60  52  73 S8        30.00R
$$

ILZ005-006-012>014-019>023-241300-
NORTHEAST ILLINOIS

CITY           SKY/WX    TMP DP  RH WIND       PRES   REMARKS
CHICAGO-OHARE  CLOUDY    61  49  64 S6        29.99R
6HR MIN TEMP:  60; 6HR MAX TEMP:  67;

CHICAGO-MIDWAY PTSUNNY   65  45  48 S7        30.00R
6HR MIN TEMP:  64; 6HR MAX TEMP:  70;

AURORA         MOSUNNY   59  49  69 CALM      29.99R
6HR MIN TEMP:  55; 6HR MAX TEMP:  65;

LANSING*       CLOUDY    60  46  60 S3        30.01R
JOLIET*        SUNNY     60  52  75 CALM      30.00R
WAUKEGAN       PTSUNNY   62  49  62 SW8       29.98R
6HR MIN TEMP:  52; 6HR MAX TEMP:  62;

DUPAGE AIRPORT MOSUNNY   56  47  71 S5        29.98R
6HR MIN TEMP:  56; 6HR MAX TEMP:  62;

KANKAKEE*      PTSUNNY  N/A N/A N/A S6        30.02S
WHEELING       CLOUDY    61  49  64 SE3       29.99R
6HR MIN TEMP:  57; 6HR MAX TEMP:  63;

MORRIS*        SUNNY     61  50  66 CALM      29.99R
ROMEOVILLE*    SUNNY     59  47  66 S8        30.00S
NORTHERLY ISL    N/A     65  44  46 S6          N/A
NORTHERLY ISL    N/A     65  44  46 S6          N/A
$$

LMZ740>746-241300-
SOUTHERN LAKE MICHIGAN

STATION/POSITION SKY/WX   TEMP    WIND        PRES    VSBY  WAVE
                          AIR SEA DIR/SP/G                  HT/PER
                          (F)     (DEG/KT/KT) (MB)    (MI)  (FT/S)
SOUTHERN BUOY              52 47  190/ 10/ 12 1014.9R         1
WILMETTE HARBOR            61 55  240/  6/  8   N/A           1
HARRISON CRIB              67     190/ 15/ 15   N/A
BURNHAM HARBOR             66     200/  5/  7   N/A
CALUMET HARBOR             64     190/  4/  6 1014.9R
BURNS HARBOR               64     190/ 11/ 15 1016.3R
MICHIGAN CITY              66     160/ 13/ 14   N/A
MICHIGAN CITY 6N           61 56  210/  8/  8   N/A           1/ 2
ST. JOSEPH                 60 56  190/  6/  6   N/A           1
$$

ILZ025>027-034>036-040-047-049-050-058-095>099-241300-
WEST-CENTRAL ILLINOIS

CITY           SKY/WX    TMP DP  RH WIND       PRES   REMARKS
QUINCY         SUNNY     64  55  72 SE6       29.97R
GALESBURG*     CLOUDY    63  55  75 S6        29.98R
MACOMB*        SUNNY     63  55  75 S3        30.00R
JACKSONVILLE*  MOSUNNY   65  55  67 S6        29.99R
PITTSFIELD*    SUNNY     63  58  82 CALM      30.00R
$$

ILZ028>032-037-038-041>044-048-051>054-059>061-241300-
CENTRAL ILLINOIS

CITY           SKY/WX    TMP DP  RH WIND       PRES   REMARKS
PONTIAC        MOSUNNY   64  53  66 S6        30.02R
BLOOMINGTON    MOSUNNY   63  55  75 S7        30.03R
DECATUR        SUNNY     65  50  58 S7        30.02R
PEORIA         SUNNY     63  54  72 S7        30.00R
6HR MIN TEMP:  59; 6HR MAX TEMP:  66;

LACON*         SUNNY     63  53  70 SW5       29.99R
LINCOLN*       MOSUNNY   63  56  79 CALM      30.00R
SPRINGFIELD    SUNNY     66  56  70 S6        30.00R
6HR MIN TEMP:  60; 6HR MAX TEMP:  66;

TAYLORVILLE    MOSUNNY   60  55  81 S6        30.02R
6HR MIN TEMP:  58; 6HR MAX TEMP:  63;

$$

ILZ033-039-045-046-055>057-062-063-241300-
EAST-CENTRAL ILLINOIS

CITY           SKY/WX    TMP DP  RH WIND       PRES   REMARKS
CHAMPAIGN      SUNNY     62  50  64 SE6       30.02R
RANTOUL*       SUNNY     60  49  67 SE5       30.02S
MATTOON        SUNNY     62  48  60 S9        30.02R
PARIS*         CLOUDY    59  50  71 SE3       30.05S
$$

ILZ079-100>102-241300-
SOUTHWEST ILLINOIS

CITY           SKY/WX    TMP DP  RH WIND       PRES   REMARKS
ALTON          PTSUNNY   64  57  77 S6        30.00R
BELLEVILLE     CLOUDY    64  64  99 CALM      29.99R
CAHOKIA*       CLOUDY    68  57  68 SE3       29.99R
SPARTA*        CLOUDY    69  55  61 S3        30.02R
$$

ILZ064>066-069>071-074>076-080>082-084>086-088>090-092>094-241300-
SOUTH-CENTRAL ILLINOIS

CITY           SKY/WX    TMP DP  RH WIND       PRES   REMARKS
CARBONDALE     CLOUDY    64  59  83 E3        30.02R
6HR MIN TEMP:  58; 6HR MAX TEMP:  64;

CAIRO*         CLOUDY    64  61  89 CALM      30.03R
EFFINGHAM*     MOSUNNY   60  54  80 SE3       30.04R
MARION         PTSUNNY   66  59  77 SE7       30.04R
MT. VERNON     MOSUNNY   57  54  88 CALM      30.04R
CENTRALIA*     MOSUNNY   64  58  79 CALM      30.02R
SALEM*         MOSUNNY   64  54  70 CALM      30.03R
METROPOLIS*    CLOUDY    64  61  89 E5        30.04S
$$

ILZ067-068-072-073-078-083-087-091-241300-
SOUTHEAST ILLINOIS

CITY           SKY/WX    TMP DP  RH WIND       PRES   REMARKS
LAWRENCEVILLE  CLOUDY    61  52  72 SE6       30.05R
FLORA*         MOSUNNY   60  56  85 CALM      30.03S
FAIRFIELD*     MOSUNNY   61  54  78 CALM      30.03R
HARRISBURG*    MOSUNNY   63  58  86 CALM      30.04R
ROBINSON*      PTSUNNY   57  54  91 CALM      30.06R
CARMI*         SUNNY     61  56  84 CALM      30.04R
$$

ABBREVIATIONS USED IN REMARKS
   TC - TEMPERATURE IN CELSIUS
  WCI - WIND CHILL INDEX
   HX - HEAT INDEX
  VSB - VISIBILITY
$$





USA.gov is the U.S. government's official web portal to all federal, state and local government web resources and services.